Regional Weather Roundup
Issued by NWS Newport/Morehead, NC

Current Version | Previous Version | Text Only | Print | Product List | Glossary Off
Versions: 1 2 3 4 5 6 7 8 9 10 11 12 13 14 15 16 17 18 19 20 21 22 23 24 25 26 27 28 29 30 31 32 33 34 35 36 37 38 39 40 41 42 43 44 45 46 47 48 49 50
000 ASUS42 KMHX 310122 RWRMHX WEATHER ROUNDUP FOR EASTERN NORTH CAROLINA NATIONAL WEATHER SERVICE NEWPORT/MOREHEAD CITY NC 900 PM EDT WED JUL 30 2014 NOTE: "FAIR" INDICATES FEW OR NO CLOUDS BELOW 12,000 FEET WITH NO SIGNIFICANT WEATHER AND/OR OBSTRUCTIONS TO VISIBILITY NCZ015>017-031-032-045>047-102-103-310200- NORTH COAST CITY SKY/WX TMP DP RH WIND PRES REMARKS EDENTON CLEAR 73 63 69 SE7 30.08R ELIZABETH CITY CLEAR 71 62 73 SE6 30.07S KITTY HAWK CLEAR 73 60 63 E7 30.07R MANTEO NOT AVBL $$ NCZ045>047-081-094-103-104-310200- CENTRAL COAST CITY SKY/WX TMP DP RH WIND PRES REMARKS FRISCO PTCLDY 73 62 68 E5 30.06S SWANQUARTER N/A 72 N/A N/A E2 30.03S $$ NCZ095-097-098-100-101-310200- SOUTHERN COAST CITY SKY/WX TMP DP RH WIND PRES REMARKS BEAUFORT PTCLDY 76 67 73 E3 30.05R CEDAR ISLAND N/A 77 N/A N/A NE13 30.09S JACKSONVILLE PTCLDY 78 66 66 E9 30.05R NEWPORT NOT AVBL PINEY ISLAND CLEAR 78 67 68 E10 30.05R WILMINGTON MOCLDY 78 65 63 E3 30.04R $$ NCZ011>013-027>030-043-044-078>080-089-090>093-098-310200- COASTAL PLAIN CITY SKY/WX TMP DP RH WIND PRES REMARKS AHOSKIE CLEAR 69 65 89 CALM 30.08R CLINTON PTCLDY 75 67 75 CALM 30.05R ELIZABETHTOWN CLOUDY 77 64 65 SE5 30.05R GOLDSBORO CLOUDY 71 70 98 E6 30.04R GREENVILLE PTCLDY 77 66 69 CALM 30.08R HAVELOCK PTCLDY 74 66 76 E3 30.06R KENANSVILLE PTCLDY 71 66 85 CALM 30.06R KINSTON PTCLDY 77 64 65 SE6 30.06R NEW BERN PTCLDY 76 65 68 E3 30.07R RICHLANDS MOCLDY 73 64 73 CALM 30.06R ROANOKE RAPIDS NOT AVBL ROCKY MOUNT CLEAR 70 65 84 CALM 30.06R WASHINGTON PTCLDY 73 65 74 E3 30.07R WHITEVILLE MOCLDY 76 65 67 CALM 30.04R $$ AMZ130-135-150-152-154-156-158-170-250-252-270-ANZ085-086-088-633-658-670-310200- MARINE OBSERVATIONS STATION/POSITION TIME TEMP WIND PRES WAVE SWELL AIR SEA DIR/SP/G HT/PER HT/PER (UTC) (F) (DEG/KT/KT) (MB) (FT/S) (FT/S) CHESAPEAKE LIGHT NOT AVBL BUOY 44014 0100 74 78 70/ 6/ 8 1018.2 3/ 7 3/ 7 DUCK 0100 74 77 100/ 10/ 11 1017.7 2E DUCK 0100 N/A 2/ 8 OREGON INLET 0100 74 78 80/ 7/ 11 1018.2 BUOY 44095 0100 78 N/A 3/ 7 20E OREGON INLET NOT AVBL HATTERAS CG 0100 74 80 70/ 6/ 8 1018.5 DIAMOND BUOY 0100 VRB 12/ 16 1017.6 4/ 7 3/ 7 CAPE LOOKOUT 0100 78 70/ 16/ 18 1017.2 BEAUFORT LAB 0100 77 83 70/ 5/ 9 1017.1 30 SE NEW RIVER 0100 79 81 80/ 16/ 17 1017.1 4/ 7 2/ 8 5 SE WRIGHTSVILL 0100 76 81 70/ 14/ 16 N/A BUOY 41002 0039 75 81 290/ 8/ 12 1016.4 5/ 6 5/ 6 BUOY 41004 0100 82 83 80/ 14/ 17 1015.4 4/ 5 2/ 8 $$

USA.gov is the U.S. government's official web portal to all federal, state and local government web resources and services.